Location: Namasale
(1.5000°N, 32.6167°E)
Time: 23:57:10
(UTC+00:00)

Transit 2A - Pass Details

Date: 26 April 2021
Orbit: 602 x 957 km, 66.7° (Epoch: 11 May)

Event Time Altitude Azimuth Distance (km) Brightness Sun altitude
Rises 15:05:19 0° 297° (WNW) 3,160 11.0 10.6°
Reaches altitude 10° 15:09:55 10° 259° (W) 2,348 10.0 9.4°
Maximum altitude 15:11:00 11° 247° (WSW) 2,332 9.5 9.2°
Drops below altitude 10° 15:12:07 10° 235° (SW) 2,399 9.3 8.9°
Sets 15:17:08 0° 198° (SSW) 3,444 9.4 7.7°
